[[{"header":{"parameterUnit":"m.s-1","parameterCategory":1,"la1":30.2992,"la2":30.254,"lo1":-89.0895,"lo2":-89.0443,"dy":0.0025,"dx":0.0025,"nx":19,"ny":19,"refTime":"2026-03-28T09:00:00:Z","depth":0,"parameterNumber":2,"parameterNumberName":"U-component_of_WINDS"},"data":[0,0,0,-7.6758,-7.6761,-7.6854,-7.6854,-7.7004,-7.7006,0,0,0,0,0,0,0,0,0,0,0,-7.6751,-7.6753,-7.6758,-7.6761,-7.6854,-7.6854,-7.7004,-7.7006,0,0,0,0,0,0,0,0,0,0,0,-7.6751,-7.6753,-7.6755,-7.6762,-7.6854,-7.6854,-7.7003,-7.6922,0,0,0,0,0,0,0,0,0,0,-7.6826,-7.684,-7.6752,-7.6755,-7.6762,-7.6854,-7.6854,-7.6917,-7.6927,-7.6976,0,-7.7027,0,-7.7019,-7.7018,-7.7019,0,0,0,-7.6745,-7.6832,-7.6839,-7.6755,-7.6763,-7.6854,-7.6807,-7.6922,-7.6933,-7.6989,-7.7029,-7.7033,-7.7022,-7.7019,-7.702,-7.7361,-7.7364,0,0,-7.674,-7.6779,-7.6832,-7.6847,-7.6837,-7.6805,-7.6811,-7.6928,-7.6973,-7.7029,-7.7036,-7.7024,-7.702,-7.7022,-7.7359,-7.7362,0,0,0,-7.6736,-7.6776,-7.6779,-7.6842,-7.6857,-7.6808,-7.6815,-7.6968,-7.6966,-7.7038,-7.7026,-7.7021,-7.7024,-7.7356,-7.736,-7.7513,0,0,0,-7.6732,-7.6773,-7.6777,-7.6802,-7.6855,-7.6914,-7.6852,-7.6958,-7.697,-7.7025,-7.7022,-7.7025,-7.7354,-7.7358,-7.7503,-7.7577,0,0,0,-7.6738,-7.6774,-7.6795,-7.6804,-7.6846,-7.6911,-7.6915,-7.6959,-7.6964,-7.7019,-7.7026,-7.7352,-7.7358,-7.7494,-7.7562,-7.7677,0,0,0,-7.6755,-7.6928,-7.6798,-7.6987,-7.6845,-7.7007,-7.6914,-7.7032,-7.7097,-7.7022,-7.7354,-7.736,-7.7491,-7.7553,-7.7668,-7.7778,-7.7828,0,0,-7.6995,-7.6959,-7.7067,-7.6953,-7.7147,-7.6989,-7.7205,-7.7228,-7.7197,-7.7308,-7.7316,-7.7506,-7.7561,-7.7675,-7.8103,-7.8143,0,0,0,-7.7156,-7.7233,-7.7277,-7.7342,-7.7366,-7.7391,-7.7377,-7.7386,-7.7478,-7.7263,-7.7579,-7.761,-7.7675,-7.7726,-7.776,-7.7812,-7.7386,-7.7385,-7.7385,-7.7547,-7.7501,-7.7676,-7.7642,-7.7707,-7.7692,-7.7739,-7.7748,-7.7681,-7.7757,-7.7788,-7.8053,-7.8114,-7.814,-7.8195,-7.7845,-7.7846,-7.7846,-7.7847,-7.7891,-7.7993,-7.7903,-7.804,-7.799,-7.8104,-7.8098,-7.8047,-7.8144,-7.8026,-7.808,-7.7952,-7.8186,-7.8231,-7.7858,-7.7856,-7.7854,-7.7853,-7.7852,-7.8139,-7.818,-7.819,-7.8281,-7.8356,-7.8315,-7.8414,-7.8365,-7.8319,-7.8374,-7.84,-7.8397,-7.8386,-7.8391,-7.8392,-7.8393,-7.8393,-7.8394,-7.8395,-7.8391,-7.8398,-7.8488,-7.853,-7.8565,-7.8607,-7.8596,-7.863,-7.8654,-7.861,-7.861,-7.8534,-7.8219,-7.8139,-7.8409,-7.8406,-7.8404,-7.8403,-7.8402,-7.8751,-7.8662,-7.8802,-7.8838,-7.8883,-7.8961,-7.8899,-7.8972,-7.8993,-7.9043,-7.8958,-7.8734,-7.8691,-7.8664,-7.8597,-7.8969,-7.8969,-7.8969,-7.8969,-7.8957,-7.8934,-7.9064,-7.9126,-7.9181,-7.914,-7.9298,-7.9292,-7.9272,-7.9282,-7.9222,-7.913,-7.9105,-7.9077,-7.9041,-7.8977,-7.9438,-7.9438,-7.9439,-7.9175,-7.9154,-7.9297,-7.9278,-7.9311,-7.9339,-7.9485,-7.9559,-7.9517,-7.9456,-7.9288,-7.9268,-7.9119,-7.9074,-7.9005,-7.8949,-7.8831,0,0]},{"header":{"parameterUnit":"m.s-1","parameterCategory":1,"la1":30.2992,"la2":30.254,"lo1":-89.0895,"lo2":-89.0443,"dy":0.0025,"dx":0.0025,"nx":19,"ny":19,"refTime":"2026-03-28T09:00:00:Z","depth":0,"parameterNumber":3,"parameterNumberName":"V-component_of_WINDS"},"data":[0,0,0,1.9543,1.9543,1.9536,1.9536,1.9528,1.9528,0,0,0,0,0,0,0,0,0,0,0,1.9546,1.9546,1.9543,1.9543,1.9536,1.9536,1.9528,1.9528,0,0,0,0,0,0,0,0,0,0,0,1.9546,1.9546,1.9546,1.9543,1.9536,1.9536,1.9528,1.9532,0,0,0,0,0,0,0,0,0,0,1.9538,1.9542,1.9546,1.9546,1.9543,1.9536,1.9536,1.9533,1.9532,1.9531,0,1.9532,0,1.953,1.9527,1.9527,0,0,0,1.9541,1.9543,1.9541,1.9546,1.9543,1.9536,1.9539,1.9532,1.9532,1.953,1.9532,1.9531,1.953,1.9527,1.9527,1.9531,1.9531,0,0,1.9542,1.9544,1.9541,1.954,1.9543,1.9539,1.9539,1.9532,1.9533,1.9531,1.9531,1.953,1.9527,1.9527,1.9531,1.9531,0,0,0,1.9544,1.9545,1.9543,1.9541,1.954,1.9539,1.9538,1.9533,1.9532,1.9531,1.9529,1.9527,1.9527,1.9531,1.9531,1.9539,0,0,0,1.9544,1.9546,1.9543,1.9544,1.954,1.9536,1.9539,1.9533,1.9532,1.953,1.9527,1.9527,1.9531,1.9531,1.9539,1.9542,0,0,0,1.9546,1.9546,1.9546,1.9545,1.9542,1.9536,1.9535,1.9532,1.9531,1.9527,1.9527,1.9531,1.9531,1.9538,1.9541,1.9545,0,0,0,1.9548,1.9551,1.9546,1.9549,1.9542,1.9542,1.9535,1.9534,1.9532,1.9527,1.9531,1.9531,1.9538,1.9541,1.9544,1.9548,1.955,0,0,1.9553,1.9552,1.9553,1.9549,1.9551,1.9543,1.9546,1.9539,1.9535,1.9532,1.9532,1.9539,1.9541,1.9545,1.956,1.9562,0,0,0,1.9556,1.9557,1.9557,1.9557,1.9554,1.9552,1.9546,1.9545,1.9543,1.9535,1.9541,1.9542,1.9544,1.9546,1.9547,1.9549,1.9532,1.9532,1.9532,1.9566,1.9564,1.9567,1.9564,1.9564,1.9559,1.9558,1.9555,1.955,1.9552,1.955,1.9561,1.9563,1.9564,1.9566,1.9552,1.9552,1.9553,1.9553,1.9574,1.9576,1.9573,1.9575,1.9572,1.9572,1.9569,1.9566,1.9566,1.9561,1.9562,1.9556,1.9566,1.9567,1.9553,1.9553,1.9553,1.9553,1.9553,1.958,1.9581,1.9581,1.9582,1.9583,1.9579,1.9581,1.9577,1.9574,1.9576,1.9575,1.9574,1.9574,1.9576,1.9576,1.9576,1.9576,1.9576,1.9576,1.9586,1.9586,1.9589,1.9589,1.959,1.959,1.9588,1.9588,1.9587,1.9584,1.9584,1.9579,1.9568,1.9565,1.9576,1.9576,1.9576,1.9576,1.9576,1.9594,1.9593,1.9597,1.9598,1.9599,1.9601,1.9598,1.9599,1.9599,1.96,1.9596,1.9588,1.9585,1.9584,1.9581,1.9597,1.9597,1.9597,1.9597,1.9599,1.9599,1.9603,1.9606,1.9607,1.9606,1.9611,1.961,1.9608,1.9608,1.9606,1.9602,1.9601,1.9599,1.9597,1.9595,1.9613,1.9613,1.9613,1.9604,1.9604,1.9609,1.961,1.9611,1.9612,1.9617,1.9619,1.9617,1.9614,1.9608,1.9607,1.9602,1.96,1.9595,1.9593,1.9589,0,0]}]]